Showing default

KINEIS-1D, 60082

Orbit data source: Space-Track

KINEIS-1D, 60082 is a French payload satellite in SSO that was launched on Thu, 20 Jun 2024 UTC via an ELECTRON launch vehicle from the Rocket Lab Launch Complex (RLLC). Payload-class satellites include a variety of spacecraft equipped with specific instruments for various scientific and technological missions. These include communications satellites like Starlink; space stations such as the ISS; scientific satellites like the Hubble; Earth observation satellites from companies like Planet Labs, Umbra, and HawkEye 360; GPS; miniature CubeSats for education and research; and military/defense satellites.

Loading next visibility...
Identifier
60082, 2024-114D
Orbit
SSO
Country
Flag of FRFR
Related business
Manufacturer
KINEIS
Mission
Operational Commercial Communications
Bus & Motor
CUBESAT 16U, Unknown motor
Mass
28 kg wet, 28 kg dry
Launch date (UTC)
2024-06-20 (1 year ago)
Launch vehicle
ELECTRON
Launch site
Rocket Lab Launch Complex (RLLC)
Object type
Payload
Rocket body
Debris
Shape & HBR
Box + 2 Pan + 1 Ant, 0.8 m
Radar Cross Section
0.229 m², Small (<0.1 m²)

Expand to show TLE details & history
Last TLE update: 13 hours ago

TLE from 13 hours ago
0 KINEIS-1D
1 60082U 24114D   25258.28876815  .00000862  00000-0  13349-3 0  9994
2 60082  98.0092 276.2423 0002022  47.0171 313.1207 14.75731051 66573
Epoch: 2025-09-15T06:55Z
TLE epoch observation values (Epoch: 2025-09-15T06:55:49.568Z)
Latitude
-0.00006°
Longitude
177.79021°
Altitude
644.874 km
Speed
7.536 km/s
True Right ascension
18h 24m 58s
True Declination
0° 00' 00"
Sunlit
Object was in daylight at epoch
Visualization orbit readout
Latitude
Unknown
Longitude
Unknown
Altitude
Unknown
Speed
Unknown
Apparent Right ascension
Unknown
Apparent Declination
Unknown
Sunlit
N/A
Visualization observer readout
Local Sidereal Time
12:30:48
Azimuth
Unknown
Elevation
Unknown
Doppler factor
Unknown
Orbital elements
Apogee altitude
641.302 km
Perigee altitude
638.464 km
Semi-major axis
7,018.02 km
Eccentricity
0.0002
Inclination
98.0092°
RAAN
276.2423°
Arg. of periapsis
47.0171°
True anomaly
313.10378°
Mean anomaly
313.1207°
Eccentric anomaly
313.11224°
Mean motion
3.69166 °/min
Orbital period
97.52 mins
BSTAR
0.00013349
Loading maneuver chart data...
Computing Atmospheric mass density...
Loading historical data...
Loading historical data...
Loading historical data...
Loading historical data...
Loading historical data...
Loading historical data...
Loading historical data...

Documentation

Showing up to 5 results
|